Time,TemperatureF,DewpointF,PressureIn,WindDirection,WindDirectionDegrees,WindSpeedMPH,WindSpeedGustMPH,Humidity,HourlyPrecipIn,Conditions,Clouds,dailyrainin,SolarRadiationWatts/m^2,SoftwareType,DateUTC
2013-01-09 00:02:00,35.0,30.0,-100.00,SSW,206,8.0,18.0,82,0.00,,,0.00,0.000000,,2013-01-09 06:02:00,
2013-01-09 00:32:00,36.0,30.0,-100.00,WSW,240,9.0,16.0,80,0.00,,,0.00,0.000000,,2013-01-09 06:32:00,
2013-01-09 00:42:00,36.0,30.0,-100.00,WSW,240,9.0,16.0,80,0.00,,,0.00,0.000000,,2013-01-09 06:42:00,
2013-01-09 00:52:00,36.0,30.0,-100.00,WSW,240,9.0,16.0,80,0.00,,,0.00,0.000000,,2013-01-09 06:52:00,
2013-01-09 01:02:00,36.0,30.0,-100.00,WSW,240,9.0,16.0,80,0.00,,,0.00,0.000000,,2013-01-09 07:02:00,
2013-01-09 01:32:00,35.0,29.0,-100.00,WSW,251,12.0,23.0,78,0.00,,,0.00,0.000000,,2013-01-09 07:32:00,
2013-01-09 01:42:00,35.0,29.0,-100.00,WSW,251,12.0,23.0,78,0.00,,,0.00,0.000000,,2013-01-09 07:42:00,
2013-01-09 01:52:00,35.0,29.0,-100.00,WSW,251,12.0,23.0,78,0.00,,,0.00,0.000000,,2013-01-09 07:52:00,
2013-01-09 02:02:00,35.0,29.0,-100.00,WSW,251,12.0,23.0,78,0.00,,,0.00,0.000000,,2013-01-09 08:02:00,
2013-01-09 02:32:00,33.0,27.0,-100.00,West,260,13.0,24.0,78,0.00,,,0.00,0.000000,,2013-01-09 08:32:00,
2013-01-09 02:43:00,33.0,27.0,-100.00,West,260,13.0,24.0,78,0.00,,,0.00,0.000000,,2013-01-09 08:43:00,
2013-01-09 02:53:00,33.0,27.0,-100.00,West,260,13.0,24.0,78,0.00,,,0.00,0.000000,,2013-01-09 08:53:00,
2013-01-09 03:02:00,33.0,27.0,-100.00,West,260,13.0,24.0,78,0.00,,,0.00,0.000000,,2013-01-09 09:02:00,
2013-01-09 03:32:00,32.0,27.0,-100.00,West,264,9.0,18.0,82,0.00,,,0.00,0.000000,,2013-01-09 09:32:00,
2013-01-09 03:42:00,32.0,27.0,-100.00,West,264,9.0,18.0,82,0.00,,,0.00,0.000000,,2013-01-09 09:42:00,
2013-01-09 03:53:00,32.0,27.0,-100.00,West,264,9.0,18.0,82,0.00,,,0.00,0.000000,,2013-01-09 09:53:00,
2013-01-09 04:02:00,32.0,27.0,-100.00,West,264,9.0,18.0,82,0.00,,,0.00,0.000000,,2013-01-09 10:02:00,
2013-01-09 04:32:00,32.0,27.0,-100.00,WSW,246,8.0,16.0,83,0.00,,,0.00,0.000000,,2013-01-09 10:32:00,
2013-01-09 04:42:00,32.0,27.0,-100.00,WSW,246,8.0,16.0,83,0.00,,,0.00,0.000000,,2013-01-09 10:42:00,
2013-01-09 04:52:00,32.0,27.0,-100.00,WSW,246,8.0,16.0,83,0.00,,,0.00,0.000000,,2013-01-09 10:52:00,
2013-01-09 05:02:00,32.0,27.0,-100.00,WSW,246,8.0,16.0,83,0.00,,,0.00,0.000000,,2013-01-09 11:02:00,
2013-01-09 05:33:00,31.0,27.0,-100.00,WSW,248,9.0,15.0,85,0.00,,,0.00,0.000000,,2013-01-09 11:33:00,
2013-01-09 05:43:00,31.0,27.0,-100.00,WSW,248,9.0,15.0,85,0.00,,,0.00,0.000000,,2013-01-09 11:43:00,
2013-01-09 05:53:00,31.0,27.0,-100.00,WSW,248,9.0,15.0,85,0.00,,,0.00,0.000000,,2013-01-09 11:53:00,
2013-01-09 06:03:00,31.0,27.0,-100.00,WSW,248,9.0,15.0,85,0.00,,,0.00,0.000000,,2013-01-09 12:03:00,
2013-01-09 06:33:00,30.0,26.0,-100.00,WSW,238,10.0,17.0,84,0.00,,,0.00,0.000000,,2013-01-09 12:33:00,
2013-01-09 06:43:00,30.0,26.0,-100.00,WSW,238,10.0,17.0,84,0.00,,,0.00,0.000000,,2013-01-09 12:43:00,
2013-01-09 06:53:00,30.0,26.0,-100.00,WSW,238,10.0,17.0,84,0.00,,,0.00,0.000000,,2013-01-09 12:53:00,
2013-01-09 07:02:00,30.0,26.0,-100.00,WSW,238,10.0,17.0,84,0.00,,,0.00,0.000000,,2013-01-09 13:02:00,
2013-01-09 07:33:00,31.0,26.0,-100.00,WSW,243,11.0,19.0,82,0.00,,,0.00,0.000000,,2013-01-09 13:33:00,
2013-01-09 07:43:00,31.0,26.0,-100.00,WSW,243,11.0,19.0,82,0.00,,,0.00,0.000000,,2013-01-09 13:43:00,
2013-01-09 07:53:00,31.0,26.0,-100.00,WSW,243,11.0,19.0,82,0.00,,,0.00,0.000000,,2013-01-09 13:53:00,
2013-01-09 08:03:00,31.0,26.0,-100.00,WSW,243,11.0,19.0,82,0.00,,,0.00,0.000000,,2013-01-09 14:03:00,
2013-01-09 08:33:00,30.0,25.0,-100.00,WSW,248,10.0,19.0,82,0.00,,,0.00,7.000000,,2013-01-09 14:33:00,
2013-01-09 08:43:00,30.0,25.0,-100.00,WSW,248,10.0,19.0,82,0.00,,,0.00,7.000000,,2013-01-09 14:43:00,
2013-01-09 08:53:00,30.0,25.0,-100.00,WSW,248,10.0,19.0,82,0.00,,,0.00,7.000000,,2013-01-09 14:53:00,
2013-01-09 09:03:00,30.0,25.0,-100.00,WSW,248,10.0,19.0,82,0.00,,,0.00,7.000000,,2013-01-09 15:03:00,
2013-01-09 09:33:00,33.0,25.0,-100.00,WSW,254,12.0,19.0,73,0.00,,,0.00,112.000000,,2013-01-09 15:33:00,
2013-01-09 09:43:00,33.0,25.0,-100.00,WSW,254,12.0,19.0,73,0.00,,,0.00,112.000000,,2013-01-09 15:43:00,
2013-01-09 09:53:00,33.0,25.0,-100.00,WSW,254,12.0,19.0,73,0.00,,,0.00,112.000000,,2013-01-09 15:53:00,
2013-01-09 10:03:00,33.0,25.0,-100.00,WSW,254,12.0,19.0,73,0.00,,,0.00,112.000000,,2013-01-09 16:03:00,
2013-01-09 10:34:00,35.0,24.0,-100.00,West,273,15.0,31.0,65,0.00,,,0.00,249.000000,,2013-01-09 16:34:00,
2013-01-09 10:43:00,35.0,24.0,-100.00,West,273,15.0,31.0,65,0.00,,,0.00,249.000000,,2013-01-09 16:43:00,
2013-01-09 10:53:00,35.0,24.0,-100.00,West,273,15.0,31.0,65,0.00,,,0.00,249.000000,,2013-01-09 16:53:00,
2013-01-09 11:03:00,35.0,24.0,-100.00,West,273,15.0,31.0,65,0.00,,,0.00,249.000000,,2013-01-09 17:03:00,
2013-01-09 11:33:00,36.0,23.0,-100.00,WNW,289,18.0,26.0,60,0.00,,,0.00,350.000000,,2013-01-09 17:33:00,
2013-01-09 11:43:00,36.0,23.0,-100.00,WNW,289,18.0,26.0,60,0.00,,,0.00,350.000000,,2013-01-09 17:43:00,
2013-01-09 11:53:00,36.0,23.0,-100.00,WNW,289,18.0,26.0,60,0.00,,,0.00,350.000000,,2013-01-09 17:53:00,
2013-01-09 12:03:00,36.0,23.0,-100.00,WNW,289,18.0,26.0,60,0.00,,,0.00,350.000000,,2013-01-09 18:03:00,
2013-01-09 12:33:00,36.0,22.0,-100.00,WNW,284,15.0,28.0,57,0.00,,,0.00,409.000000,,2013-01-09 18:33:00,
2013-01-09 12:43:00,36.0,22.0,-100.00,WNW,284,15.0,28.0,57,0.00,,,0.00,409.000000,,2013-01-09 18:43:00,
2013-01-09 12:53:00,36.0,22.0,-100.00,WNW,284,15.0,28.0,57,0.00,,,0.00,409.000000,,2013-01-09 18:53:00,
2013-01-09 13:03:00,36.0,22.0,-100.00,WNW,284,15.0,28.0,57,0.00,,,0.00,409.000000,,2013-01-09 19:03:00,
2013-01-09 14:33:00,38.0,22.0,-100.00,West,276,16.0,27.0,51,-99.99,,,0.00,360.000000,,2013-01-09 20:33:00,
2013-01-09 14:43:00,38.0,22.0,-100.00,West,276,16.0,27.0,51,-99.99,,,0.00,360.000000,,2013-01-09 20:43:00,
2013-01-09 14:53:00,38.0,22.0,-100.00,West,276,16.0,27.0,51,-99.99,,,0.00,360.000000,,2013-01-09 20:53:00,
2013-01-09 15:03:00,38.0,22.0,-100.00,West,276,16.0,27.0,51,-99.99,,,0.00,360.000000,,2013-01-09 21:03:00,
2013-01-09 15:33:00,37.0,21.0,-100.00,West,275,12.0,24.0,51,0.00,,,-99.99,265.000000,,2013-01-09 21:33:00,
2013-01-09 15:43:00,37.0,21.0,-100.00,West,275,12.0,24.0,51,0.00,,,-99.99,265.000000,,2013-01-09 21:43:00,
2013-01-09 15:53:00,37.0,21.0,-100.00,West,275,12.0,24.0,51,0.00,,,-99.99,265.000000,,2013-01-09 21:53:00,
2013-01-09 16:03:00,37.0,21.0,-100.00,West,275,12.0,24.0,51,0.00,,,-99.99,265.000000,,2013-01-09 22:03:00,
2013-01-09 16:33:00,36.0,20.0,-100.00,West,261,11.0,22.0,52,0.00,,,0.00,137.000000,,2013-01-09 22:33:00,
2013-01-09 16:43:00,36.0,20.0,-100.00,West,261,11.0,22.0,52,0.00,,,0.00,137.000000,,2013-01-09 22:43:00,
2013-01-09 16:52:00,36.0,20.0,-100.00,West,261,11.0,22.0,52,0.00,,,0.00,137.000000,,2013-01-09 22:52:00,
2013-01-09 17:02:00,36.0,20.0,-100.00,West,261,11.0,22.0,52,0.00,,,0.00,137.000000,,2013-01-09 23:02:00,
2013-01-09 17:33:00,33.0,19.0,-100.00,WSW,258,8.0,20.0,57,0.00,,,0.00,13.000000,,2013-01-09 23:33:00,
2013-01-09 17:43:00,33.0,19.0,-100.00,WSW,258,8.0,20.0,57,0.00,,,0.00,13.000000,,2013-01-09 23:43:00,
2013-01-09 17:53:00,33.0,19.0,-100.00,WSW,258,8.0,20.0,57,0.00,,,0.00,13.000000,,2013-01-09 23:53:00,
2013-01-09 18:03:00,33.0,19.0,-100.00,WSW,258,8.0,20.0,57,0.00,,,0.00,13.000000,,2013-01-10 00:03:00,
2013-01-09 18:33:00,31.0,18.0,-100.00,WSW,243,6.0,14.0,59,0.00,,,0.00,0.000000,,2013-01-10 00:33:00,
2013-01-09 18:43:00,31.0,18.0,-100.00,WSW,243,6.0,14.0,59,0.00,,,0.00,0.000000,,2013-01-10 00:43:00,
2013-01-09 18:53:00,31.0,18.0,-100.00,WSW,243,6.0,14.0,59,0.00,,,0.00,0.000000,,2013-01-10 00:53:00,
2013-01-09 19:02:00,31.0,18.0,-100.00,WSW,243,6.0,14.0,59,0.00,,,0.00,0.000000,,2013-01-10 01:02:00,
2013-01-09 19:33:00,28.0,17.0,-100.00,SW,236,5.0,12.0,64,0.00,,,0.00,0.000000,,2013-01-10 01:33:00,
2013-01-09 19:43:00,28.0,17.0,-100.00,SW,236,5.0,12.0,64,0.00,,,0.00,0.000000,,2013-01-10 01:43:00,
2013-01-09 19:53:00,28.0,17.0,-100.00,SW,236,5.0,12.0,64,0.00,,,0.00,0.000000,,2013-01-10 01:53:00,
2013-01-09 20:03:00,28.0,17.0,-100.00,SW,236,5.0,12.0,64,0.00,,,0.00,0.000000,,2013-01-10 02:03:00,
2013-01-09 20:33:00,27.0,18.0,-100.00,SW,226,4.0,8.0,68,0.00,,,0.00,0.000000,,2013-01-10 02:33:00,
2013-01-09 20:43:00,27.0,18.0,-100.00,SW,226,4.0,8.0,68,0.00,,,0.00,0.000000,,2013-01-10 02:43:00,
2013-01-09 20:52:00,27.0,18.0,-100.00,SW,226,4.0,8.0,68,0.00,,,0.00,0.000000,,2013-01-10 02:52:00,
2013-01-09 21:02:00,27.0,18.0,-100.00,SW,226,4.0,8.0,68,0.00,,,0.00,0.000000,,2013-01-10 03:02:00,
2013-01-09 21:33:00,22.0,16.0,-100.00,South,172,4.0,6.0,76,0.00,,,0.00,0.000000,,2013-01-10 03:33:00,
2013-01-09 21:43:00,22.0,16.0,-100.00,South,172,4.0,6.0,76,0.00,,,0.00,0.000000,,2013-01-10 03:43:00,
2013-01-09 21:53:00,22.0,16.0,-100.00,South,172,4.0,6.0,76,0.00,,,0.00,0.000000,,2013-01-10 03:53:00,
2013-01-09 22:02:00,22.0,16.0,-100.00,South,172,4.0,6.0,76,0.00,,,0.00,0.000000,,2013-01-10 04:02:00,
2013-01-09 22:32:00,22.0,18.0,-100.00,East,82,3.0,5.0,83,0.00,,,0.00,0.000000,,2013-01-10 04:32:00,
2013-01-09 22:43:00,22.0,18.0,-100.00,East,82,3.0,5.0,83,0.00,,,0.00,0.000000,,2013-01-10 04:43:00,
2013-01-09 22:52:00,22.0,18.0,-100.00,East,82,3.0,5.0,83,0.00,,,0.00,0.000000,,2013-01-10 04:52:00,
2013-01-09 23:03:00,22.0,18.0,-100.00,East,82,3.0,5.0,83,0.00,,,0.00,0.000000,,2013-01-10 05:03:00,
2013-01-09 23:33:00,21.0,16.0,-100.00,East,91,4.0,7.0,80,0.00,,,0.00,0.000000,,2013-01-10 05:33:00,
2013-01-09 23:43:00,21.0,16.0,-100.00,East,91,4.0,7.0,80,0.00,,,0.00,0.000000,,2013-01-10 05:43:00,
2013-01-09 23:53:00,21.0,16.0,-100.00,East,91,4.0,7.0,80,0.00,,,0.00,0.000000,,2013-01-10 05:53:00,